| time (UTC) | temp C | wind direction | speed KPH | gust KPH | rain 1hr cm | rain 24hr cm | rain mn cm | humidity % | barometer mb |
| 20260505071021 | 13 | 0 | 22.5 | 37.0 | 0.00 | 0.00 | 0.00 | 69 | 1005.6 |
| 20260505070021 | 13 | 338 | 22.5 | 35.4 | 0.00 | 0.00 | 0.00 | 69 | 1005.1 |
| 20260505065021 | 13 | 338 | 17.7 | 29.0 | 0.00 | 0.00 | 0.00 | 71 | 1005.2 |
| 20260505064021 | 13 | 338 | 19.3 | 29.0 | 0.00 | 0.00 | 0.00 | 74 | 1005.0 |
| 20260505063021 | 13 | 338 | 16.1 | 24.1 | 0.00 | 0.00 | 0.00 | 75 | 1004.4 |
| 20260505062021 | 13 | 338 | 16.1 | 30.6 | 0.00 | 0.00 | 0.00 | 77 | 1004.1 |
| 20260505061021 | 13 | 338 | 14.5 | 22.5 | 0.00 | 0.00 | 0.00 | 79 | 1004.2 |
| 20260505060021 | 14 | 338 | 12.9 | 20.9 | 0.00 | 0.00 | 0.00 | 80 | 1004.0 |
| 20260505055021 | 14 | 338 | 12.9 | 20.9 | 0.00 | 0.00 | 0.00 | 81 | 1003.7 |
| 20260505054021 | 14 | 338 | 11.3 | 19.3 | 0.00 | 0.00 | 0.00 | 80 | 1003.9 |
| 20260505053021 | 15 | 338 | 12.9 | 22.5 | 0.00 | 0.00 | 0.00 | 79 | 1004.1 |
| 20260505052021 | 15 | 338 | 11.3 | 20.9 | 0.00 | 0.00 | 0.00 | 77 | 1004.0 |
| 20260505051021 | 16 | 338 | 8.0 | 17.7 | 0.00 | 0.00 | 0.00 | 74 | 1003.9 |
| 20260505041021 | 21 | 86 | 0.0 | 0.0 | 0.00 | 0.00 | 0.00 | 68 | 1003.6 |
| 20260505040021 | 21 | 90 | 3.2 | 8.0 | 0.00 | 0.00 | 0.00 | 67 | 1003.3 |
| 20260505035021 | 22 | 113 | 8.0 | 16.1 | 0.00 | 0.00 | 0.00 | 66 | 1003.4 |
| 20260505034021 | 22 | 158 | 8.0 | 29.0 | 0.00 | 0.00 | 0.00 | 62 | 1003.0 |
| 20260505033021 | 22 | 180 | 11.3 | 20.9 | 0.00 | 0.00 | 0.00 | 63 | 1003.2 |
| 20260505032021 | 22 | 113 | 11.3 | 16.1 | 0.00 | 0.00 | 0.00 | 62 | 1002.7 |
| 20260505031021 | 22 | 90 | 8.0 | 12.9 | 0.00 | 0.00 | 0.00 | 60 | 1002.5 |
| 20260505030021 | 22 | 90 | 9.7 | 17.7 | 0.00 | 0.00 | 0.00 | 60 | 1002.4 |
| 20260505025021 | 22 | 90 | 9.7 | 14.5 | 0.00 | 0.00 | 0.00 | 59 | 1002.7 |
| 20260505024021 | 22 | 113 | 9.7 | 16.1 | 0.00 | 0.00 | 0.00 | 58 | 1002.7 |
| 20260505023021 | 22 | 135 | 6.4 | 9.7 | 0.00 | 0.00 | 0.00 | 57 | 1002.6 |
| 20260505022021 | 23 | 90 | 11.3 | 17.7 | 0.00 | 0.00 | 0.00 | 56 | 1002.2 |
| 20260505021021 | 23 | 113 | 12.9 | 17.7 | 0.00 | 0.00 | 0.00 | 56 | 1002.2 |
| 20260505020021 | 23 | 113 | 8.0 | 12.9 | 0.00 | 0.00 | 0.00 | 55 | 1001.9 |
| 20260505015021 | 23 | 90 | 9.7 | 14.5 | 0.00 | 0.00 | 0.00 | 54 | 1001.6 |
| 20260505014021 | 23 | 90 | 9.7 | 14.5 | 0.00 | 0.00 | 0.00 | 53 | 1001.3 |
| 20260505013021 | 23 | 90 | 8.0 | 11.3 | 0.00 | 0.00 | 0.00 | 52 | 1001.1 |
| 20260505012021 | 23 | 113 | 8.0 | 14.5 | 0.00 | 0.00 | 0.00 | 51 | 1001.0 |
| 20260505011021 | 24 | 113 | 8.0 | 12.9 | 0.00 | 0.00 | 0.00 | 50 | 1001.0 |
| 20260505010021 | 25 | 113 | 8.0 | 14.5 | 0.00 | 0.00 | 0.00 | 48 | 1000.9 |
| 20260505005021 | 25 | 90 | 12.9 | 17.7 | 0.00 | 0.00 | 0.00 | 47 | 1000.7 |
| 20260505004021 | 25 | 90 | 11.3 | 19.3 | 0.00 | 0.00 | 0.00 | 46 | 1000.6 |
| 20260505003021 | 26 | 113 | 14.5 | 24.1 | 0.00 | 0.00 | 0.00 | 45 | 1000.6 |
| 20260505002021 | 26 | 113 | 17.7 | 24.1 | 0.00 | 0.00 | 0.00 | 43 | 1000.9 |
| 20260505001021 | 27 | 113 | 17.7 | 30.6 | 0.00 | 0.00 | 0.00 | 42 | 1000.9 |
| 20260505000021 | 27 | 135 | 14.5 | 25.7 | 0.00 | 0.00 | 0.00 | 41 | 1001.0 |
| 20260504235021 | 28 | 113 | 17.7 | 29.0 | 0.00 | 0.00 | 0.00 | 40 | 1001.0 |
| 20260504234021 | 28 | 113 | 20.9 | 30.6 | 0.00 | 0.00 | 0.00 | 39 | 1001.0 |
| 20260504233020 | 28 | 113 | 19.3 | 30.6 | 0.00 | 0.00 | 0.00 | 38 | 1001.1 |
| 20260504232021 | 29 | 135 | 16.1 | 27.4 | 0.00 | 0.00 | 0.00 | 36 | 1001.2 |
| 20260504231021 | 30 | 135 | 14.5 | 24.1 | 0.00 | 0.00 | 0.00 | 34 | 1001.2 |
| 20260504230020 | 31 | 135 | 9.7 | 20.9 | 0.00 | 0.00 | 0.00 | 30 | 1001.2 |
| 20260504225020 | 31 | 158 | 6.4 | 12.9 | 0.00 | 0.00 | 0.00 | 31 | 1001.2 |
| 20260504224021 | 30 | 135 | 6.4 | 12.9 | 0.00 | 0.00 | 0.00 | 31 | 1001.3 |
| 20260504223020 | 30 | 135 | 4.8 | 9.7 | 0.00 | 0.00 | 0.00 | 32 | 1001.4 |
| 20260504222020 | 30 | 68 | 8.0 | 14.5 | 0.00 | 0.00 | 0.00 | 31 | 1001.4 |
| 20260504221020 | 30 | 68 | 8.0 | 17.7 | 0.00 | 0.00 | 0.00 | 30 | 1001.4 |
| 20260504220020 | 30 | 135 | 6.4 | 12.9 | 0.00 | 0.00 | 0.00 | 29 | 1001.4 |
| 20260504215021 | 28 | 90 | 0.0 | 9.7 | 0.00 | 0.00 | 0.00 | 32 | 1001.5 |
| 20260504214020 | 28 | 68 | 6.4 | 11.3 | 0.00 | 0.00 | 0.00 | 33 | 1001.7 |
| 20260504213021 | 28 | 68 | 6.4 | 12.9 | 0.00 | 0.00 | 0.00 | 30 | 1001.7 |
| 20260504212020 | 28 | 68 | 9.7 | 16.1 | 0.00 | 0.00 | 0.00 | 30 | 1002.0 |
| 20260504211020 | 28 | 90 | 9.7 | 17.7 | 0.00 | 0.00 | 0.00 | 29 | 1002.1 |
| 20260504210020 | 29 | 90 | 12.9 | 20.9 | 0.00 | 0.00 | 0.00 | 27 | 1002.4 |
| 20260504205020 | 29 | 68 | 11.3 | 22.5 | 0.00 | 0.00 | 0.00 | 28 | 1002.4 |
| 20260504204020 | 28 | 135 | 8.0 | 14.5 | 0.00 | 0.00 | 0.00 | 31 | 1002.5 |
| 20260504203020 | 30 | 90 | 12.9 | 19.3 | 0.00 | 0.00 | 0.00 | 30 | 1002.8 |
| 20260504202020 | 30 | 90 | 11.3 | 24.1 | 0.00 | 0.00 | 0.00 | 30 | 1002.9 |
| 20260504201020 | 30 | 135 | 9.7 | 17.7 | 0.00 | 0.00 | 0.00 | 26 | 1003.0 |
| 20260504200020 | 30 | 90 | 9.7 | 17.7 | 0.00 | 0.00 | 0.00 | 26 | 1003.2 |
| 20260504195020 | 30 | 90 | 9.7 | 17.7 | 0.00 | 0.00 | 0.00 | 28 | 1003.4 |
| 20260504194020 | 29 | 68 | 4.8 | 16.1 | 0.00 | 0.00 | 0.00 | 28 | 1003.5 |
| 20260504193020 | 29 | 23 | 4.8 | 9.7 | 0.00 | 0.00 | 0.00 | 27 | 1003.6 |
| 20260504192020 | 29 | 135 | 6.4 | 16.1 | 0.00 | 0.00 | 0.00 | 27 | 1003.7 |
| 20260504191020 | 29 | 90 | 8.0 | 14.5 | 0.00 | 0.00 | 0.00 | 28 | 1003.8 |
| 20260504190020 | 29 | 90 | 8.0 | 14.5 | 0.00 | 0.00 | 0.00 | 30 | 1004.0 |
| 20260504185020 | 29 | 158 | 3.2 | 8.0 | 0.00 | 0.00 | 0.00 | 30 | 1004.0 |
| 20260504184020 | 28 | 158 | 3.2 | 11.3 | 0.00 | 0.00 | 0.00 | 30 | 1004.1 |
| 20260504183020 | 27 | 203 | 3.2 | 8.0 | 0.00 | 0.00 | 0.00 | 33 | 1004.2 |
| 20260504182020 | 27 | 158 | 3.2 | 8.0 | 0.00 | 0.00 | 0.00 | 34 | 1004.3 |
| 20260504181020 | 26 | 158 | 3.2 | 8.0 | 0.00 | 0.00 | 0.00 | 36 | 1004.2 |
| 20260504180020 | 26 | 158 | 6.4 | 9.7 | 0.00 | 0.00 | 0.00 | 35 | 1004.4 |
| 20260504175020 | 26 | 158 | 8.0 | 16.1 | 0.00 | 0.00 | 0.00 | 36 | 1004.4 |
| 20260504174020 | 26 | 158 | 8.0 | 14.5 | 0.00 | 0.00 | 0.00 | 38 | 1004.4 |
| 20260504173020 | 26 | 180 | 3.2 | 9.7 | 0.00 | 0.00 | 0.00 | 36 | 1004.5 |
| 20260504172020 | 26 | 180 | 8.0 | 12.9 | 0.00 | 0.00 | 0.00 | 37 | 1004.6 |
| 20260504171020 | 26 | 158 | 9.7 | 22.5 | 0.00 | 0.00 | 0.00 | 38 | 1004.5 |
| 20260504151022 | 21 | 158 | 16.1 | 24.1 | 0.00 | 0.00 | 0.00 | 49 | 1004.2 |
| 20260504141022 | 20 | 158 | 12.9 | 20.9 | 0.00 | 0.00 | 0.00 | 52 | 1004.1 |
| 20260504081021 | 18 | 135 | 11.3 | 20.9 | 0.00 | 0.00 | 0.00 | 48 | 1006.0 |